Date,TemperatureHighF,TemperatureAvgF,TemperatureLowF,DewpointHighF,DewpointAvgF,DewpointLowF,HumidityHigh,HumidityAvg,HumidityLow,PressureMaxIn,PressureMinIn,WindSpeedMaxMPH,WindSpeedAvgMPH,GustSpeedMaxMPH,PrecipitationSumIn
2013-8-1,95.2,83.0,69.1,83.0,76.8,68.8,99,83,60,29.64,29.43,17,4,17,0.00
2013-8-2,102.9,89.2,77.5,88.2,81.1,76.9,99,79,48,29.44,29.25,17,6,17,0.00
2013-8-3,99.9,87.9,78.8,84.3,80.2,75.2,99,79,58,29.55,29.34,17,5,17,0.00
2013-8-4,90.5,80.8,75.9,86.3,80.0,75.7,99,98,85,29.57,29.44,17,4,17,0.01
2013-8-5,104.9,87.5,74.3,86.4,78.6,72.8,99,78,45,29.47,29.24,34,5,34,0.00
2013-8-6,102.4,88.1,73.2,85.5,79.0,73.0,99,77,54,29.44,29.24,20,4,21,0.01
2013-8-7,95.9,85.2,75.4,82.4,78.6,71.4,99,82,61,29.45,29.28,30,6,30,0.28
2013-8-8,88.3,78.1,69.1,82.3,76.0,68.8,99,94,76,29.47,29.35,34,4,34,1.90
2013-8-9,79.5,73.1,68.2,79.1,72.7,67.9,99,98,94,29.66,29.44,23,3,23,0.73
2013-8-10,88.7,76.6,63.9,77.1,71.3,63.6,99,85,66,29.71,29.57,10,2,10,0.00
2013-8-11,91.0,79.2,67.3,81.6,75.9,67.0,99,90,72,29.64,29.51,16,3,16,0.00
2013-8-12,91.8,81.5,72.7,83.8,78.1,72.4,99,90,74,29.55,29.43,15,3,15,0.06
2013-8-13,87.3,75.3,68.4,81.4,73.7,68.1,99,95,80,29.64,29.49,26,3,26,0.00
2013-8-14,87.8,75.9,65.3,77.5,70.4,65.0,99,84,64,29.67,29.54,10,1,10,0.00
2013-8-15,89.6,77.0,65.7,82.1,74.0,65.4,99,91,72,29.60,29.43,24,3,24,0.58
2013-8-16,82.2,72.0,63.7,78.4,69.8,63.4,99,93,77,29.62,29.52,11,2,11,0.01
2013-8-17,84.7,74.5,66.6,78.4,71.4,66.3,99,91,74,29.68,29.54,15,2,15,0.50
2013-8-18,86.4,75.6,66.2,76.2,71.2,52.5,99,87,66,29.64,29.51,101,4,101,0.00
2013-8-19,90.3,78.7,66.7,78.7,73.4,66.5,99,85,64,29.58,29.46,17,5,17,0.00
2013-8-20,94.6,81.4,66.7,79.6,73.7,66.5,99,79,57,29.54,29.45,17,7,17,0.00
2013-8-21,96.8,83.0,68.9,78.1,72.3,68.4,99,73,48,29.56,29.48,21,7,21,0.00
2013-8-22,95.7,83.3,67.1,79.3,73.5,66.8,99,75,49,29.57,29.46,17,5,17,0.00
2013-8-23,99.5,85.5,70.3,83.8,76.5,69.9,99,77,51,29.54,29.42,18,6,18,0.00
2013-8-24,98.4,86.1,71.4,84.0,77.7,71.0,99,78,55,29.59,29.50,18,7,18,0.00
2013-8-25,99.1,86.3,72.5,83.6,77.6,72.2,99,77,54,29.67,29.57,17,6,17,0.00
2013-8-26,98.1,85.5,72.9,81.9,76.2,71.9,99,76,55,29.67,29.55,23,8,23,0.00
2013-8-27,97.9,83.8,70.0,80.4,73.8,69.7,99,74,50,29.59,29.50,18,8,18,0.00
2013-8-28,96.3,83.1,71.1,83.7,76.7,70.8,99,82,60,29.55,29.47,15,5,15,0.00
2013-8-29,102.2,87.3,74.1,81.4,73.9,70.0,91,67,45,29.55,29.45,18,6,18,0.00
2013-8-30,107.1,89.8,72.1,84.3,74.2,68.3,90,62,41,29.48,29.34,13,3,13,0.00
2013-8-31,105.4,83.0,72.1,83.0,72.4,68.2,91,72,44,29.41,29.32,11,2,11,0.00